Weather History for K11R - July, 2013

Change the Weather History Date:

Tuesday, July 16, 2013

  Actual Average (KCLL) Record (KCLL)
Temperature  
Mean Temperature 85 °F 85 °F  
Max Temperature 96 °F 95 °F 105 °F (2000)
Min Temperature 76 °F 75 °F 58 °F (1967)
Degree Days  
Heating Degree Days 0 0  
Month to date heating degree days 0  
Since 1 June heating degree days 0  
Since 1 July heating degree days 0  
Cooling Degree Days 20 20  
Month to date cooling degree days 309  
Year to date cooling degree days 1413  
Since 1 June cooling degree days 825  
Growing Degree Days 35 (Base 50)    
Moisture  
Dew Point 72 °F    
Average Humidity 77    
Maximum Humidity 90    
Minimum Humidity 40    
Precipitation  
Precipitation 0.81 in 0.06 in 1.71 in (1919)
Month to date precipitation 1.24  
Year to date precipitation 21.94  
Sea Level Pressure  
Sea Level Pressure 30.08 in    
Wind  
Wind Speed 5 mph (East)    
Max Wind Speed 22 mph    
Max Gust Speed 30 mph    
Visibility 9 miles    
Events Rain , Thunderstorm    
T = Trace of Precipitation, MM = Missing Value Source: NWS Daily Summary

Daily Weather History Graph

Daily Weather History Graph

Search for Another Location

Airport or City:

Trip Planner

Search our weather history database for the weather conditions in past years. The results will help you decide how hot, cold, wet, or windy it might be!

Date:

Astronomy

Jul. 16, 2013 Rise Set
Actual Time 6:34 AM CDT 8:28 PM CDT
Civil Twilight 6:07 AM CDT 8:54 PM CDT
Nautical Twilight 5:35 AM CDT 9:27 PM CDT
Astronomical Twilight 5:00 AM CDT 10:01 PM CDT
Moon 2:20 PM CDT (7/16) 12:52 AM CDT (7/16)
Length of Visible Light 14h 46m
Length of Day
13h 53m
First Quarter, 56% of the Moon is Illuminated
Jul 16
First Quarter
Jul 22
Full
Jul 29
Last Quarter
Aug 6
New
Aug 14
First Quarter

Hourly Weather History & Observations

Time (CDT) Temp. Heat Index Dew Point Humidity Pressure Visibility Wind Dir Wind Speed Gust Speed Precip Events Conditions
12:15 AM 76.1 °F - 71.2 °F 85% 30.05 in 10.0 mi East 3.5 mph - N/A   Clear
12:35 AM 76.1 °F - 71.6 °F 86% 30.05 in 10.0 mi East 4.6 mph - N/A   Clear
12:55 AM 76.5 °F - 72.0 °F 86% 30.05 in 10.0 mi East 6.9 mph - N/A   Clear
1:15 AM 77.0 °F - 72.5 °F 86% 30.05 in 10.0 mi East 8.1 mph - N/A   Clear
1:35 AM 77.0 °F - 72.5 °F 86% 30.05 in 10.0 mi East 4.6 mph - N/A   Clear
1:55 AM 76.5 °F - 72.5 °F 87% 30.05 in 10.0 mi East 3.5 mph - N/A   Clear
2:15 AM 77.0 °F - 72.7 °F 86% 30.04 in 10.0 mi East 4.6 mph - N/A   Clear
2:35 AM 77.0 °F - 72.7 °F 86% 30.04 in 10.0 mi Calm Calm - N/A   Clear
2:55 AM 76.6 °F - 72.7 °F 87% 30.03 in 10.0 mi East 4.6 mph - N/A   Clear
3:15 AM 76.6 °F - 72.9 °F 88% 30.04 in 10.0 mi ESE 3.5 mph - N/A   Scattered Clouds
3:35 AM 76.5 °F - 72.9 °F 89% 30.03 in 7.0 mi East 3.5 mph - N/A   Scattered Clouds
3:55 AM 76.5 °F - 72.9 °F 89% 30.04 in 7.0 mi Calm Calm - N/A   Clear
4:15 AM 76.5 °F - 73.0 °F 89% 30.04 in 7.0 mi East 3.5 mph - N/A   Scattered Clouds
4:35 AM 76.5 °F - 73.2 °F 90% 30.04 in 7.0 mi East 3.5 mph - N/A   Clear
4:55 AM 76.5 °F - 73.4 °F 90% 30.04 in 5.0 mi East 4.6 mph - N/A   Clear
5:15 AM 76.3 °F - 73.2 °F 90% 30.04 in 5.0 mi East 5.8 mph - N/A   Clear
5:35 AM 76.3 °F - 72.9 °F 89% 30.05 in 7.0 mi East 4.6 mph - N/A   Clear
5:55 AM 76.3 °F - 72.7 °F 89% 30.05 in 10.0 mi East 3.5 mph - N/A   Clear
6:15 AM 76.1 °F - 72.5 °F 89% 30.06 in 10.0 mi East 4.6 mph - N/A   Clear
6:35 AM 76.3 °F - 72.7 °F 89% 30.06 in 10.0 mi East 3.5 mph - N/A   Clear
6:55 AM 76.3 °F - 72.7 °F 89% 30.06 in 10.0 mi East 4.6 mph - N/A   Clear
7:15 AM 76.6 °F - 73.0 °F 89% 30.07 in 10.0 mi East 5.8 mph - N/A   Clear
7:35 AM 77.0 °F - 73.0 °F 88% 30.08 in 10.0 mi East 4.6 mph - N/A   Clear
7:55 AM 77.5 °F - 73.6 °F 88% 30.08 in 10.0 mi Calm Calm - N/A   Clear
8:15 AM 78.3 °F - 73.6 °F 85% 30.08 in 10.0 mi ENE 3.5 mph - N/A   Clear
8:35 AM 79.2 °F - 73.8 °F 83% 30.09 in 10.0 mi East 4.6 mph - N/A   Clear
8:55 AM 80.1 °F 84.5 °F 73.6 °F 81% 30.10 in 10.0 mi East 6.9 mph - N/A   Clear
9:15 AM 81.5 °F 86.9 °F 73.8 °F 77% 30.10 in 10.0 mi East 4.6 mph - N/A   Clear
9:35 AM 82.4 °F 88.2 °F 73.4 °F 74% 30.10 in 10.0 mi East 8.1 mph - N/A   Clear
9:55 AM 83.3 °F 89.6 °F 73.4 °F 72% 30.10 in 10.0 mi East 10.4 mph - N/A   Clear
10:15 AM 84.7 °F 92.5 °F 74.5 °F 71% 30.10 in 10.0 mi East 6.9 mph - N/A   Clear
10:55 AM 86.5 °F 94.2 °F 73.4 °F 65% 30.11 in 10.0 mi East 9.2 mph - N/A   Clear
11:15 AM 86.7 °F 94.1 °F 73.2 °F 64% 30.11 in 10.0 mi ESE 10.4 mph - N/A   Scattered Clouds
11:35 AM 87.8 °F 94.3 °F 72.0 °F 59% 30.11 in 10.0 mi East 6.9 mph - N/A   Scattered Clouds
11:55 AM 88.5 °F 94.4 °F 71.1 °F 56% 30.11 in 10.0 mi East 9.2 mph - N/A   Scattered Clouds
12:15 PM 89.6 °F 94.3 °F 69.3 °F 51% 30.11 in 10.0 mi SE 10.4 mph - N/A   Scattered Clouds
12:35 PM 90.3 °F 95.2 °F 69.3 °F 50% 30.10 in 10.0 mi East 8.1 mph - N/A   Scattered Clouds
12:55 PM 90.3 °F 94.3 °F 68.0 °F 48% 30.10 in 10.0 mi East 10.4 mph - N/A   Scattered Clouds
1:15 PM 93.2 °F 97.7 °F 68.4 °F 44% 30.09 in 10.0 mi ESE 11.5 mph - N/A   Clear
1:35 PM 94.1 °F 97.9 °F 67.3 °F 41% 30.08 in 10.0 mi East 11.5 mph 16.1 mph N/A   Clear
1:55 PM 92.7 °F 96.2 °F 67.1 °F 43% 30.08 in 10.0 mi East 8.1 mph - N/A   Scattered Clouds
2:15 PM 93.2 °F 96.7 °F 67.1 °F 42% 30.07 in 10.0 mi East 10.4 mph - N/A   Scattered Clouds
2:35 PM 94.1 °F 97.3 °F 66.2 °F 40% 30.06 in 10.0 mi East 8.1 mph - N/A   Scattered Clouds
3:55 PM 86.5 °F 91.8 °F 70.5 °F 59% 30.05 in 10.0 mi ENE 11.5 mph 20.7 mph N/A Rain Light Rain
4:15 PM 84.0 °F 89.9 °F 72.3 °F 68% 30.05 in 10.0 mi Calm Calm - 0.02 in Rain Light Rain
4:35 PM 86.7 °F 93.7 °F 72.9 °F 63% 30.04 in 10.0 mi East 3.5 mph - 0.02 in   Clear
4:55 PM 89.8 °F 95.6 °F 70.7 °F 53% 30.04 in 10.0 mi SE 5.8 mph - 0.02 in Thunderstorm Clear
5:15 PM 90.1 °F 95.3 °F 69.6 °F 51% 30.04 in 10.0 mi SE 10.4 mph - N/A Thunderstorm Thunderstorm
5:35 PM 90.5 °F 94.2 °F 68.0 °F 47% 30.04 in 10.0 mi ESE 8.1 mph - N/A Thunderstorm Clear
5:55 PM 89.1 °F 94.1 °F 70.2 °F 53% 30.06 in 10.0 mi East 21.9 mph 29.9 mph N/A Thunderstorm Thunderstorm
6:15 PM 77.4 °F - 72.9 °F 86% - 0.8 mi East 10.4 mph 24.2 mph 0.54 in Rain , Thunderstorm Light Thunderstorms and Rain
6:35 PM 77.2 °F - 72.9 °F 86% 30.10 in 5.0 mi SSE 6.9 mph - 0.71 in Rain , Thunderstorm Light Thunderstorms and Rain
6:55 PM 77.0 °F - 72.9 °F 87% 30.10 in 10.0 mi SSE 3.5 mph - 0.71 in Rain , Thunderstorm Light Thunderstorms and Rain
7:15 PM 77.0 °F - 72.9 °F 87% 30.10 in 10.0 mi Calm Calm - 0.01 in Rain Rain
7:35 PM 76.6 °F - 73.0 °F 89% 30.10 in 7.0 mi Calm Calm - 0.02 in Rain , Thunderstorm Rain
7:55 PM 76.6 °F - 73.4 °F 90% 30.11 in 7.0 mi Calm Calm - 0.04 in Rain , Thunderstorm Light Thunderstorms and Rain
8:15 PM 77.0 °F - 73.6 °F 89% 30.11 in 7.0 mi Calm Calm - 0.02 in Rain Light Rain
8:35 PM 77.0 °F - 73.6 °F 89% 30.11 in 10.0 mi Calm Calm - 0.03 in Rain Light Rain
8:55 PM 77.0 °F - 73.8 °F 90% 30.11 in 10.0 mi Calm Calm - 0.03 in   Light Drizzle
9:15 PM 77.0 °F - 73.8 °F 90% 30.12 in 10.0 mi Calm Calm - N/A   Light Drizzle
9:35 PM 77.2 °F - 74.1 °F 90% 30.12 in 10.0 mi Calm Calm - N/A   Light Drizzle
9:55 PM 77.4 °F - 74.3 °F 90% 30.12 in 10.0 mi North 3.5 mph - N/A   Clear
10:15 PM 77.4 °F - 74.3 °F 90% 30.12 in 10.0 mi NE 3.5 mph - N/A   Clear
10:35 PM 77.4 °F - 74.3 °F 90% 30.12 in 7.0 mi Calm Calm - N/A   Clear
10:55 PM 77.0 °F - 73.9 °F 90% 30.13 in 7.0 mi NE 3.5 mph - 0.01 in   Clear
11:15 PM 77.0 °F - 73.9 °F 90% 30.14 in 10.0 mi ENE 4.6 mph - N/A   Scattered Clouds
11:35 PM 77.2 °F - 73.9 °F 90% 30.14 in 10.0 mi ENE 3.5 mph - N/A   Mostly Cloudy
11:55 PM 77.0 °F - 73.8 °F 90% 30.14 in 10.0 mi ENE 3.5 mph - N/A   Scattered Clouds